Time,TemperatureF,DewpointF,PressureIn,WindDirection,WindDirectionDegrees,WindSpeedMPH,WindSpeedGustMPH,Humidity,HourlyPrecipIn,Conditions,Clouds,dailyrainin,SoftwareType,DateUTC
2013-07-17 00:01:00,78.2,75.0,30.04,South,177,0.0,0.0,90,0.00,,---,0.21,VWS V14.01,2013-07-17 04:01:00,
2013-07-17 00:06:00,77.8,74.6,30.04,South,177,0.0,1.0,90,0.00,,---,0.00,VWS V14.01,2013-07-17 04:06:00,
2013-07-17 00:11:00,77.3,74.1,30.04,South,177,0.0,1.0,90,0.00,,---,0.00,VWS V14.01,2013-07-17 04:11:00,
2013-07-17 00:16:00,77.0,74.2,30.04,South,176,0.0,0.0,91,0.01,,---,0.01,VWS V14.01,2013-07-17 04:16:00,
2013-07-17 00:21:00,77.1,74.3,30.04,South,177,0.0,0.0,91,0.05,,---,0.05,VWS V14.01,2013-07-17 04:21:00,
2013-07-17 00:26:00,76.7,73.9,30.04,South,176,0.0,0.0,91,0.05,,---,0.05,VWS V14.01,2013-07-17 04:26:00,
2013-07-17 00:31:00,75.7,72.6,30.03,South,177,1.0,1.0,90,0.05,,---,0.05,VWS V14.01,2013-07-17 04:31:00,
2013-07-17 00:36:00,75.4,72.3,30.03,South,177,0.0,1.0,90,0.05,,---,0.05,VWS V14.01,2013-07-17 04:36:00,
2013-07-17 00:42:00,75.5,72.7,30.03,South,177,0.0,0.0,91,0.05,,---,0.05,VWS V14.01,2013-07-17 04:42:00,
2013-07-17 00:47:00,75.8,73.0,30.04,South,177,0.0,0.0,91,0.05,,---,0.05,VWS V14.01,2013-07-17 04:47:00,
2013-07-17 00:52:00,76.0,73.2,30.04,South,177,1.0,1.0,91,0.05,,---,0.05,VWS V14.01,2013-07-17 04:52:00,
2013-07-17 00:55:00,76.0,73.2,30.04,South,177,0.0,1.0,91,0.05,,---,0.05,VWS V14.01,2013-07-17 04:55:00,
2013-07-17 00:59:00,76.1,73.3,30.04,South,176,0.0,1.0,91,0.05,,---,0.05,VWS V14.01,2013-07-17 04:59:00,
2013-07-17 01:04:00,76.4,73.9,30.03,South,176,0.0,0.0,92,0.05,,---,0.05,VWS V14.01,2013-07-17 05:04:00,
2013-07-17 01:09:00,76.6,74.1,30.03,South,177,0.0,0.0,92,0.05,,---,0.05,VWS V14.01,2013-07-17 05:09:00,
2013-07-17 01:14:00,76.7,74.2,30.03,South,177,0.0,0.0,92,0.05,,---,0.05,VWS V14.01,2013-07-17 05:14:00,
2013-07-17 01:19:00,76.7,74.2,30.03,South,176,0.0,0.0,92,0.04,,---,0.05,VWS V14.01,2013-07-17 05:19:00,
2013-07-17 01:24:00,76.9,74.4,30.03,South,177,0.0,0.0,92,0.00,,---,0.05,VWS V14.01,2013-07-17 05:24:00,
2013-07-17 01:29:00,76.9,74.4,30.03,South,177,1.0,1.0,92,0.00,,---,0.05,VWS V14.01,2013-07-17 05:29:00,
2013-07-17 01:34:00,76.9,74.4,30.02,South,177,0.0,1.0,92,0.00,,---,0.05,VWS V14.01,2013-07-17 05:34:00,
2013-07-17 01:39:00,76.9,74.4,30.02,South,177,0.0,1.0,92,0.00,,---,0.05,VWS V14.01,2013-07-17 05:39:00,
2013-07-17 01:44:00,76.9,74.4,30.02,South,177,0.0,2.0,92,0.00,,---,0.05,VWS V14.01,2013-07-17 05:44:00,
2013-07-17 01:49:00,76.9,74.4,30.02,South,177,0.0,1.0,92,0.00,,---,0.05,VWS V14.01,2013-07-17 05:49:00,
2013-07-17 01:54:00,76.9,74.4,30.02,South,176,0.0,0.0,92,0.00,,---,0.05,VWS V14.01,2013-07-17 05:54:00,
2013-07-17 01:59:00,77.3,74.8,30.02,South,176,0.0,0.0,92,0.00,,---,0.05,VWS V14.01,2013-07-17 05:59:00,
2013-07-17 02:04:00,77.4,74.9,30.02,South,177,0.0,0.0,92,0.00,,---,0.05,VWS V14.01,2013-07-17 06:04:00,
2013-07-17 02:09:00,77.6,75.1,30.02,South,177,0.0,1.0,92,0.00,,---,0.05,VWS V14.01,2013-07-17 06:09:00,
2013-07-17 02:14:00,77.7,74.9,30.02,South,177,0.0,0.0,91,0.00,,---,0.05,VWS V14.01,2013-07-17 06:14:00,
2013-07-17 02:19:00,77.8,75.0,30.02,South,177,0.0,0.0,91,0.00,,---,0.05,VWS V14.01,2013-07-17 06:19:00,
2013-07-17 02:24:00,78.0,75.2,30.02,South,177,0.0,1.0,91,0.00,,---,0.05,VWS V14.01,2013-07-17 06:24:00,
2013-07-17 02:29:00,77.9,75.1,30.02,South,176,0.0,6.0,91,0.00,,---,0.05,VWS V14.01,2013-07-17 06:29:00,
2013-07-17 02:34:00,77.9,75.1,30.00,South,177,0.0,2.0,91,0.00,,---,0.05,VWS V14.01,2013-07-17 06:34:00,
2013-07-17 02:39:00,77.9,75.1,30.00,South,176,0.0,1.0,91,0.00,,---,0.05,VWS V14.01,2013-07-17 06:39:00,
2013-07-17 02:44:00,78.0,75.2,30.00,South,176,0.0,2.0,91,0.00,,---,0.05,VWS V14.01,2013-07-17 06:44:00,
2013-07-17 02:49:00,78.1,75.3,30.00,South,177,0.0,4.0,91,0.00,,---,0.05,VWS V14.01,2013-07-17 06:49:00,
2013-07-17 02:54:00,78.0,75.2,30.00,South,177,0.0,4.0,91,0.00,,---,0.05,VWS V14.01,2013-07-17 06:54:00,
2013-07-17 02:59:00,77.7,74.5,30.00,South,177,0.0,1.0,90,0.00,,---,0.05,VWS V14.01,2013-07-17 06:59:00,
2013-07-17 03:04:00,77.5,74.3,30.00,South,177,2.0,7.0,90,0.00,,---,0.05,VWS V14.01,2013-07-17 07:04:00,
2013-07-17 03:09:00,77.5,74.3,30.00,South,177,0.0,7.0,90,0.00,,---,0.05,VWS V14.01,2013-07-17 07:09:00,
2013-07-17 03:14:00,77.8,74.3,30.00,South,177,2.0,2.0,89,0.00,,---,0.05,VWS V14.01,2013-07-17 07:14:00,
2013-07-17 03:19:00,78.3,75.1,29.99,South,177,6.0,8.0,90,0.00,,---,0.05,VWS V14.01,2013-07-17 07:19:00,
2013-07-17 03:24:00,78.6,75.1,29.99,South,177,0.0,6.0,89,0.00,,---,0.05,VWS V14.01,2013-07-17 07:24:00,
2013-07-17 03:29:00,78.7,75.2,29.99,South,176,0.0,2.0,89,0.00,,---,0.05,VWS V14.01,2013-07-17 07:29:00,
2013-07-17 03:34:00,78.7,75.2,29.99,South,176,0.0,1.0,89,0.00,,---,0.05,VWS V14.01,2013-07-17 07:34:00,
2013-07-17 03:39:00,78.8,75.6,29.99,South,177,0.0,6.0,90,0.00,,---,0.05,VWS V14.01,2013-07-17 07:39:00,
2013-07-17 03:44:00,78.8,75.6,29.99,South,177,0.0,2.0,90,0.00,,---,0.05,VWS V14.01,2013-07-17 07:44:00,
2013-07-17 03:49:00,78.9,75.7,29.99,South,177,8.0,8.0,90,0.00,,---,0.05,VWS V14.01,2013-07-17 07:49:00,
2013-07-17 03:54:00,78.9,75.7,29.99,South,177,0.0,9.0,90,0.00,,---,0.05,VWS V14.01,2013-07-17 07:54:00,
2013-07-17 03:59:00,78.9,75.7,29.99,South,177,0.0,8.0,90,0.00,,---,0.05,VWS V14.01,2013-07-17 07:59:00,
2013-07-17 04:04:00,78.7,75.2,30.00,South,177,7.0,7.0,89,0.00,,---,0.05,VWS V14.01,2013-07-17 08:04:00,
2013-07-17 04:09:00,78.7,75.2,30.00,South,177,0.0,5.0,89,0.00,,---,0.05,VWS V14.01,2013-07-17 08:09:00,
2013-07-17 04:14:00,78.7,75.2,30.00,South,177,2.0,5.0,89,0.00,,---,0.05,VWS V14.01,2013-07-17 08:14:00,
2013-07-17 04:19:00,78.7,75.2,29.99,South,177,0.0,1.0,89,0.00,,---,0.05,VWS V14.01,2013-07-17 08:19:00,
2013-07-17 04:24:00,78.7,75.2,29.99,South,177,0.0,8.0,89,0.00,,---,0.05,VWS V14.01,2013-07-17 08:24:00,
2013-07-17 04:29:00,78.8,75.3,29.99,South,177,1.0,8.0,89,0.00,,---,0.05,VWS V14.01,2013-07-17 08:29:00,
2013-07-17 04:34:00,78.8,75.3,29.99,South,177,0.0,1.0,89,0.00,,---,0.05,VWS V14.01,2013-07-17 08:34:00,
2013-07-17 04:39:00,78.7,75.2,29.99,South,177,0.0,2.0,89,0.00,,---,0.05,VWS V14.01,2013-07-17 08:39:00,
2013-07-17 04:44:00,78.7,75.2,29.99,South,177,0.0,5.0,89,0.00,,---,0.05,VWS V14.01,2013-07-17 08:44:00,
2013-07-17 04:49:00,78.7,75.2,29.99,South,176,0.0,7.0,89,0.00,,---,0.05,VWS V14.01,2013-07-17 08:49:00,
2013-07-17 04:54:00,78.6,75.1,29.99,South,177,0.0,1.0,89,0.00,,---,0.05,VWS V14.01,2013-07-17 08:54:00,
2013-07-17 04:59:00,78.7,74.8,29.99,South,177,0.0,5.0,88,0.00,,---,0.05,VWS V14.01,2013-07-17 08:59:00,
2013-07-17 05:04:00,78.6,74.8,29.99,South,177,1.0,2.0,88,0.00,,---,0.05,VWS V14.01,2013-07-17 09:04:00,
2013-07-17 05:09:00,78.7,74.8,29.99,South,176,0.0,5.0,88,0.00,,---,0.05,VWS V14.01,2013-07-17 09:09:00,
2013-07-17 05:14:00,78.8,74.9,29.99,South,177,0.0,4.0,88,0.00,,---,0.05,VWS V14.01,2013-07-17 09:14:00,
2013-07-17 05:19:00,78.9,75.1,29.99,South,177,4.0,6.0,88,0.00,,---,0.05,VWS V14.01,2013-07-17 09:19:00,
2013-07-17 05:24:00,78.8,74.9,29.99,South,177,0.0,5.0,88,0.00,,---,0.05,VWS V14.01,2013-07-17 09:24:00,
2013-07-17 05:29:00,78.8,74.9,29.99,South,177,1.0,7.0,88,0.00,,---,0.05,VWS V14.01,2013-07-17 09:29:00,
2013-07-17 05:34:00,78.9,75.1,29.99,South,177,1.0,2.0,88,0.00,,---,0.05,VWS V14.01,2013-07-17 09:34:00,
2013-07-17 05:40:00,78.9,75.1,29.99,South,177,2.0,5.0,88,0.00,,---,0.05,VWS V14.01,2013-07-17 09:40:00,
2013-07-17 05:45:00,78.9,75.1,29.99,South,177,0.0,1.0,88,0.00,,---,0.05,VWS V14.01,2013-07-17 09:45:00,
2013-07-17 05:49:00,78.9,75.1,30.00,South,177,1.0,8.0,88,0.00,,---,0.05,VWS V14.01,2013-07-17 09:49:00,
2013-07-17 05:54:00,78.9,75.1,30.00,South,177,1.0,10.0,88,0.00,,---,0.05,VWS V14.01,2013-07-17 09:54:00,
2013-07-17 05:59:00,78.9,75.1,30.00,South,177,5.0,9.0,88,0.00,,---,0.05,VWS V14.01,2013-07-17 09:59:00,
2013-07-17 06:05:00,78.8,74.9,29.99,South,177,1.0,4.0,88,0.00,,---,0.05,VWS V14.01,2013-07-17 10:05:00,
2013-07-17 06:10:00,78.7,74.8,29.99,South,177,0.0,2.0,88,0.00,,---,0.05,VWS V14.01,2013-07-17 10:10:00,
2013-07-17 06:15:00,78.9,75.1,29.99,South,177,0.0,6.0,88,0.00,,---,0.05,VWS V14.01,2013-07-17 10:15:00,
2013-07-17 06:20:00,78.9,75.1,30.00,South,177,0.0,4.0,88,0.00,,---,0.05,VWS V14.01,2013-07-17 10:20:00,
2013-07-17 06:25:00,79.0,75.2,30.00,South,177,0.0,7.0,88,0.00,,---,0.05,VWS V14.01,2013-07-17 10:25:00,
2013-07-17 06:30:00,79.0,75.2,30.00,South,177,0.0,6.0,88,0.00,,---,0.05,VWS V14.01,2013-07-17 10:30:00,
2013-07-17 06:35:00,79.0,75.2,30.00,South,177,0.0,9.0,88,0.00,,---,0.05,VWS V14.01,2013-07-17 10:35:00,
2013-07-17 06:40:00,79.0,75.2,30.00,South,177,0.0,7.0,88,0.00,,---,0.05,VWS V14.01,2013-07-17 10:40:00,
2013-07-17 06:45:00,79.0,75.2,30.00,South,177,0.0,8.0,88,0.00,,---,0.05,VWS V14.01,2013-07-17 10:45:00,
2013-07-17 06:50:00,79.0,74.8,30.01,South,177,5.0,8.0,87,0.00,,---,0.05,VWS V14.01,2013-07-17 10:50:00,
2013-07-17 06:55:00,79.2,75.0,30.01,South,177,4.0,8.0,87,0.00,,---,0.05,VWS V14.01,2013-07-17 10:55:00,
2013-07-17 07:00:00,79.3,75.1,30.01,South,177,0.0,9.0,87,0.00,,---,0.05,VWS V14.01,2013-07-17 11:00:00,
2013-07-17 07:05:00,79.3,75.1,30.02,South,177,1.0,9.0,87,0.00,,---,0.05,VWS V14.01,2013-07-17 11:05:00,
2013-07-17 07:10:00,79.5,75.3,30.02,South,177,11.0,11.0,87,0.00,,---,0.05,VWS V14.01,2013-07-17 11:10:00,
2013-07-17 07:15:00,79.6,75.4,30.02,South,177,0.0,8.0,87,0.00,,---,0.05,VWS V14.01,2013-07-17 11:15:00,
2013-07-17 07:20:00,79.6,75.4,30.02,South,177,0.0,10.0,87,0.00,,---,0.05,VWS V14.01,2013-07-17 11:20:00,
2013-07-17 07:25:00,79.7,75.5,30.02,South,177,1.0,9.0,87,0.00,,---,0.05,VWS V14.01,2013-07-17 11:25:00,
2013-07-17 07:30:00,79.6,75.1,30.02,South,177,7.0,8.0,86,0.00,,---,0.05,VWS V14.01,2013-07-17 11:30:00,
2013-07-17 07:35:00,79.8,75.9,30.02,South,177,2.0,7.0,88,0.00,,---,0.05,VWS V14.01,2013-07-17 11:35:00,
2013-07-17 07:40:00,79.9,76.0,30.02,South,177,1.0,7.0,88,0.00,,---,0.05,VWS V14.01,2013-07-17 11:40:00,
2013-07-17 07:45:00,79.8,75.9,30.02,South,177,0.0,7.0,88,0.00,,---,0.05,VWS V14.01,2013-07-17 11:45:00,
2013-07-17 07:50:00,79.7,75.8,30.03,South,177,1.0,6.0,88,0.00,,---,0.05,VWS V14.01,2013-07-17 11:50:00,
2013-07-17 07:55:00,79.7,75.8,30.03,South,176,0.0,9.0,88,0.00,,---,0.05,VWS V14.01,2013-07-17 11:55:00,
2013-07-17 08:00:00,79.7,75.8,30.03,South,177,2.0,9.0,88,0.00,,---,0.05,VWS V14.01,2013-07-17 12:00:00,
2013-07-17 08:05:00,79.7,75.8,30.03,South,177,0.0,9.0,88,0.00,,---,0.05,VWS V14.01,2013-07-17 12:05:00,
2013-07-17 08:10:00,79.7,75.8,30.03,South,177,0.0,4.0,88,0.00,,---,0.05,VWS V14.01,2013-07-17 12:10:00,
2013-07-17 08:15:00,79.8,75.9,30.03,South,177,0.0,5.0,88,0.00,,---,0.05,VWS V14.01,2013-07-17 12:15:00,
2013-07-17 08:20:00,79.8,75.6,30.03,South,177,1.0,4.0,87,0.00,,---,0.05,VWS V14.01,2013-07-17 12:20:00,
2013-07-17 08:25:00,79.9,75.7,30.03,South,176,0.0,7.0,87,0.00,,---,0.05,VWS V14.01,2013-07-17 12:25:00,
2013-07-17 08:30:00,80.0,75.8,30.03,South,176,2.0,9.0,87,0.00,,---,0.05,VWS V14.01,2013-07-17 12:30:00,
2013-07-17 08:35:00,80.0,75.8,30.03,South,177,1.0,7.0,87,0.00,,---,0.05,VWS V14.01,2013-07-17 12:35:00,
2013-07-17 08:40:00,80.1,75.9,30.03,South,177,0.0,6.0,87,0.00,,---,0.05,VWS V14.01,2013-07-17 12:40:00,
2013-07-17 08:45:00,80.1,75.5,30.03,South,177,0.0,6.0,86,0.00,,---,0.05,VWS V14.01,2013-07-17 12:45:00,
2013-07-17 08:50:00,80.2,75.6,30.03,South,177,0.0,6.0,86,0.00,,---,0.05,VWS V14.01,2013-07-17 12:50:00,
2013-07-17 08:55:00,80.4,75.8,30.03,South,177,0.0,7.0,86,0.00,,---,0.05,VWS V14.01,2013-07-17 12:55:00,
2013-07-17 09:00:00,80.5,75.9,30.03,South,177,0.0,7.0,86,0.00,,---,0.05,VWS V14.01,2013-07-17 13:00:00,
2013-07-17 09:05:00,80.4,75.5,30.03,South,177,5.0,8.0,85,0.00,,---,0.05,VWS V14.01,2013-07-17 13:05:00,
2013-07-17 09:10:00,80.4,75.1,30.03,South,177,1.0,9.0,84,0.00,,---,0.05,VWS V14.01,2013-07-17 13:10:00,
2013-07-17 09:15:00,80.5,75.2,30.03,South,177,6.0,9.0,84,0.00,,---,0.05,VWS V14.01,2013-07-17 13:15:00,
2013-07-17 09:20:00,80.6,75.0,30.03,South,177,0.0,6.0,83,0.00,,---,0.05,VWS V14.01,2013-07-17 13:20:00,
2013-07-17 09:25:00,80.7,75.1,30.03,South,177,0.0,6.0,83,0.00,,---,0.05,VWS V14.01,2013-07-17 13:25:00,
2013-07-17 09:30:00,80.9,75.3,30.03,South,177,0.0,1.0,83,0.00,,---,0.05,VWS V14.01,2013-07-17 13:30:00,
2013-07-17 09:35:00,81.1,75.1,30.03,South,176,2.0,9.0,82,0.00,,---,0.05,VWS V14.01,2013-07-17 13:35:00,
2013-07-17 09:40:00,81.3,75.3,30.03,South,176,0.0,6.0,82,0.00,,---,0.05,VWS V14.01,2013-07-17 13:40:00,
2013-07-17 09:45:00,81.4,75.4,30.03,South,176,0.0,2.0,82,0.00,,---,0.05,VWS V14.01,2013-07-17 13:45:00,
2013-07-17 09:50:00,81.5,75.5,30.03,South,176,0.0,2.0,82,0.00,,---,0.05,VWS V14.01,2013-07-17 13:50:00,
2013-07-17 09:55:00,81.8,75.8,30.03,South,177,0.0,4.0,82,0.00,,---,0.05,VWS V14.01,2013-07-17 13:55:00,
2013-07-17 10:00:00,82.1,76.1,30.03,South,176,0.0,4.0,82,0.00,,---,0.05,VWS V14.01,2013-07-17 14:00:00,
2013-07-17 10:05:00,82.6,76.2,30.03,South,177,0.0,5.0,81,0.00,,---,0.05,VWS V14.01,2013-07-17 14:05:00,
2013-07-17 10:10:00,83.0,76.6,30.03,South,176,4.0,5.0,81,0.00,,---,0.05,VWS V14.01,2013-07-17 14:10:00,
2013-07-17 10:15:00,83.1,76.7,30.03,South,176,2.0,6.0,81,0.00,,---,0.05,VWS V14.01,2013-07-17 14:15:00,
2013-07-17 10:20:00,83.2,76.4,30.03,South,177,0.0,5.0,80,0.00,,---,0.05,VWS V14.01,2013-07-17 14:20:00,
2013-07-17 10:25:00,83.0,76.2,30.03,South,176,1.0,5.0,80,0.00,,---,0.05,VWS V14.01,2013-07-17 14:25:00,
2013-07-17 10:30:00,82.8,76.0,30.03,South,176,0.0,2.0,80,0.00,,---,0.05,VWS V14.01,2013-07-17 14:30:00,
2013-07-17 10:35:00,82.7,75.9,30.03,South,177,0.0,7.0,80,0.00,,---,0.05,VWS V14.01,2013-07-17 14:35:00,
2013-07-17 10:40:00,82.5,75.7,30.03,South,176,0.0,5.0,80,0.00,,---,0.05,VWS V14.01,2013-07-17 14:40:00,
2013-07-17 10:45:00,82.5,76.1,30.03,South,177,0.0,5.0,81,0.00,,---,0.05,VWS V14.01,2013-07-17 14:45:00,
2013-07-17 10:50:00,82.4,75.6,30.03,South,177,4.0,7.0,80,0.00,,---,0.05,VWS V14.01,2013-07-17 14:50:00,
2013-07-17 10:55:00,82.3,75.9,30.03,South,176,0.0,4.0,81,0.00,,---,0.05,VWS V14.01,2013-07-17 14:55:00,
2013-07-17 11:00:00,82.3,75.9,30.03,South,176,7.0,7.0,81,0.00,,---,0.05,VWS V14.01,2013-07-17 15:00:00,
2013-07-17 11:05:00,82.2,75.8,30.03,South,176,0.0,4.0,81,0.00,,---,0.05,VWS V14.01,2013-07-17 15:05:00,
2013-07-17 11:10:00,82.2,75.8,30.03,South,176,0.0,9.0,81,0.00,,---,0.05,VWS V14.01,2013-07-17 15:10:00,
2013-07-17 11:15:00,82.3,75.9,30.03,South,177,1.0,4.0,81,0.00,,---,0.05,VWS V14.01,2013-07-17 15:15:00,
2013-07-17 11:20:00,82.3,75.9,30.04,South,177,6.0,7.0,81,0.00,,---,0.05,VWS V14.01,2013-07-17 15:20:00,
2013-07-17 11:25:00,82.4,76.0,30.04,South,177,4.0,6.0,81,0.00,,---,0.05,VWS V14.01,2013-07-17 15:25:00,
2013-07-17 11:30:00,82.5,76.1,30.04,South,176,0.0,8.0,81,0.00,,---,0.05,VWS V14.01,2013-07-17 15:30:00,
2013-07-17 11:35:00,82.7,76.3,30.04,South,177,0.0,9.0,81,0.00,,---,0.05,VWS V14.01,2013-07-17 15:35:00,
2013-07-17 11:40:00,83.2,76.4,30.04,South,176,0.0,7.0,80,0.00,,---,0.05,VWS V14.01,2013-07-17 15:40:00,
2013-07-17 11:45:00,83.4,76.6,30.04,South,177,4.0,9.0,80,0.00,,---,0.05,VWS V14.01,2013-07-17 15:45:00,
2013-07-17 11:50:00,82.9,75.7,30.04,South,177,13.0,17.0,79,0.00,,---,0.05,VWS V14.01,2013-07-17 15:50:00,
2013-07-17 11:55:00,81.0,73.9,30.04,South,176,17.0,20.0,79,0.00,,---,0.05,VWS V14.01,2013-07-17 15:55:00,
2013-07-17 12:00:00,80.2,73.5,30.04,South,177,0.0,14.0,80,0.00,,---,0.05,VWS V14.01,2013-07-17 16:00:00,
2013-07-17 12:05:00,80.6,74.6,30.04,South,176,0.0,12.0,82,0.00,,---,0.05,VWS V14.01,2013-07-17 16:05:00,
2013-07-17 12:10:00,81.0,75.3,30.04,South,177,9.0,12.0,83,0.00,,---,0.05,VWS V14.01,2013-07-17 16:10:00,
2013-07-17 12:15:00,80.6,75.0,30.04,South,177,10.0,15.0,83,0.00,,---,0.05,VWS V14.01,2013-07-17 16:15:00,
2013-07-17 12:20:00,80.4,75.1,30.04,South,176,7.0,12.0,84,0.00,,---,0.05,VWS V14.01,2013-07-17 16:20:00,
2013-07-17 12:25:00,80.3,75.0,30.04,South,176,6.0,10.0,84,0.00,,---,0.05,VWS V14.01,2013-07-17 16:25:00,
2013-07-17 12:30:00,80.2,74.6,30.04,South,176,0.0,8.0,83,0.00,,---,0.05,VWS V14.01,2013-07-17 16:30:00,
2013-07-17 12:35:00,80.6,75.3,30.04,South,177,0.0,11.0,84,0.00,,---,0.05,VWS V14.01,2013-07-17 16:35:00,
2013-07-17 12:40:00,80.7,75.8,30.04,South,176,11.0,11.0,85,0.00,,---,0.05,VWS V14.01,2013-07-17 16:40:00,
2013-07-17 12:45:00,80.2,74.9,30.04,South,177,8.0,11.0,84,0.00,,---,0.05,VWS V14.01,2013-07-17 16:45:00,
2013-07-17 12:50:00,80.1,74.5,30.03,South,176,0.0,9.0,83,0.00,,---,0.05,VWS V14.01,2013-07-17 16:50:00,
2013-07-17 12:55:00,80.5,75.2,30.03,South,176,0.0,7.0,84,0.00,,---,0.05,VWS V14.01,2013-07-17 16:55:00,
2013-07-17 13:00:00,80.7,75.4,30.03,South,176,0.0,7.0,84,0.00,,---,0.05,VWS V14.01,2013-07-17 17:00:00,
2013-07-17 13:05:00,80.8,75.5,30.04,South,177,0.0,4.0,84,0.00,,---,0.05,VWS V14.01,2013-07-17 17:05:00,
2013-07-17 13:10:00,80.7,75.4,30.04,South,176,10.0,18.0,84,0.01,,---,0.06,VWS V14.01,2013-07-17 17:10:00,
2013-07-17 13:15:00,80.0,74.7,30.04,South,176,0.0,15.0,84,0.01,,---,0.06,VWS V14.01,2013-07-17 17:15:00,
2013-07-17 13:20:00,79.2,73.9,30.04,South,177,14.0,20.0,84,0.01,,---,0.06,VWS V14.01,2013-07-17 17:20:00,
2013-07-17 13:25:00,77.7,72.1,30.04,South,177,11.0,22.0,83,0.01,,---,0.06,VWS V14.01,2013-07-17 17:25:00,
2013-07-17 13:30:00,76.4,70.9,30.04,South,176,0.0,14.0,83,0.05,,---,0.10,VWS V14.01,2013-07-17 17:30:00,
2013-07-17 13:35:00,76.3,71.1,30.04,South,177,0.0,1.0,84,0.05,,---,0.10,VWS V14.01,2013-07-17 17:35:00,
2013-07-17 13:40:00,76.2,71.0,30.04,South,177,0.0,0.0,84,0.05,,---,0.10,VWS V14.01,2013-07-17 17:40:00,
2013-07-17 13:45:00,76.2,71.7,30.04,South,177,0.0,0.0,86,0.05,,---,0.10,VWS V14.01,2013-07-17 17:45:00,
2013-07-17 13:50:00,76.4,71.9,30.03,South,176,0.0,0.0,86,0.05,,---,0.10,VWS V14.01,2013-07-17 17:50:00,
2013-07-17 13:55:00,76.8,72.6,30.03,South,176,0.0,0.0,87,0.05,,---,0.10,VWS V14.01,2013-07-17 17:55:00,
2013-07-17 14:00:00,77.3,73.1,30.03,South,176,0.0,0.0,87,0.05,,---,0.10,VWS V14.01,2013-07-17 18:00:00,
2013-07-17 14:05:00,77.9,74.1,30.03,South,177,0.0,0.0,88,0.06,,---,0.11,VWS V14.01,2013-07-17 18:05:00,
2013-07-17 14:10:00,78.6,74.8,30.03,South,177,4.0,10.0,88,0.06,,---,0.11,VWS V14.01,2013-07-17 18:10:00,
2013-07-17 14:15:00,79.1,74.9,30.03,South,177,4.0,9.0,87,0.05,,---,0.11,VWS V14.01,2013-07-17 18:15:00,
2013-07-17 14:20:00,79.7,74.4,30.03,South,176,8.0,14.0,84,0.05,,---,0.11,VWS V14.01,2013-07-17 18:20:00,
2013-07-17 14:25:00,80.4,74.4,30.03,South,177,5.0,15.0,82,0.05,,---,0.11,VWS V14.01,2013-07-17 18:25:00,
2013-07-17 14:30:00,80.8,73.7,30.03,South,176,12.0,16.0,79,0.04,,---,0.11,VWS V14.01,2013-07-17 18:30:00,
2013-07-17 14:35:00,81.1,74.0,30.03,South,177,9.0,14.0,79,0.01,,---,0.11,VWS V14.01,2013-07-17 18:35:00,
2013-07-17 14:40:00,81.3,73.4,30.03,South,177,6.0,13.0,77,0.01,,---,0.11,VWS V14.01,2013-07-17 18:40:00,
2013-07-17 14:45:00,81.4,73.1,30.03,South,177,14.0,15.0,76,0.01,,---,0.11,VWS V14.01,2013-07-17 18:45:00,
2013-07-17 14:50:00,81.5,72.8,30.02,South,177,0.0,15.0,75,0.01,,---,0.11,VWS V14.01,2013-07-17 18:50:00,
2013-07-17 14:55:00,81.6,72.9,30.02,South,176,10.0,13.0,75,0.01,,---,0.11,VWS V14.01,2013-07-17 18:55:00,
2013-07-17 15:00:00,81.5,72.4,30.02,South,176,7.0,15.0,74,0.01,,---,0.11,VWS V14.01,2013-07-17 19:00:00,
2013-07-17 15:05:00,81.4,72.3,30.02,South,177,14.0,16.0,74,0.01,,---,0.11,VWS V14.01,2013-07-17 19:05:00,
2013-07-17 15:10:00,81.4,72.3,30.02,South,176,10.0,15.0,74,0.00,,---,0.11,VWS V14.01,2013-07-17 19:10:00,
2013-07-17 15:15:00,81.5,72.8,30.02,South,176,15.0,15.0,75,0.00,,---,0.11,VWS V14.01,2013-07-17 19:15:00,
2013-07-17 15:20:00,81.4,72.7,30.02,South,176,9.0,15.0,75,0.00,,---,0.11,VWS V14.01,2013-07-17 19:20:00,
2013-07-17 15:25:00,81.3,73.0,30.02,South,177,11.0,16.0,76,0.00,,---,0.11,VWS V14.01,2013-07-17 19:25:00,
2013-07-17 15:30:00,81.1,72.8,30.02,South,176,14.0,16.0,76,0.00,,---,0.11,VWS V14.01,2013-07-17 19:30:00,
2013-07-17 15:35:00,81.2,72.9,30.02,South,177,13.0,13.0,76,0.00,,---,0.11,VWS V14.01,2013-07-17 19:35:00,
2013-07-17 15:40:00,81.4,73.5,30.02,South,176,14.0,14.0,77,0.00,,---,0.11,VWS V14.01,2013-07-17 19:40:00,
2013-07-17 15:45:00,81.5,73.2,30.02,South,177,1.0,11.0,76,0.00,,---,0.11,VWS V14.01,2013-07-17 19:45:00,
2013-07-17 15:50:00,81.5,73.2,30.01,South,176,7.0,13.0,76,0.00,,---,0.11,VWS V14.01,2013-07-17 19:50:00,
2013-07-17 15:55:00,81.6,72.9,30.01,South,176,7.0,12.0,75,0.00,,---,0.11,VWS V14.01,2013-07-17 19:55:00,
2013-07-17 16:00:00,81.9,73.2,30.01,South,176,10.0,13.0,75,0.00,,---,0.11,VWS V14.01,2013-07-17 20:00:00,
2013-07-17 16:05:00,81.7,73.0,30.01,South,177,12.0,15.0,75,0.00,,---,0.11,VWS V14.01,2013-07-17 20:05:00,
2013-07-17 16:10:00,81.6,73.3,30.01,South,176,5.0,14.0,76,0.00,,---,0.11,VWS V14.01,2013-07-17 20:10:00,
2013-07-17 16:15:00,81.5,73.2,30.01,South,177,12.0,14.0,76,0.00,,---,0.11,VWS V14.01,2013-07-17 20:15:00,
2013-07-17 16:20:00,81.7,73.4,30.00,South,176,5.0,13.0,76,0.00,,---,0.11,VWS V14.01,2013-07-17 20:20:00,
2013-07-17 16:25:00,81.9,74.0,30.00,South,176,7.0,11.0,77,0.00,,---,0.11,VWS V14.01,2013-07-17 20:25:00,
2013-07-17 16:30:00,82.0,74.1,30.00,South,176,9.0,12.0,77,0.00,,---,0.11,VWS V14.01,2013-07-17 20:30:00,
2013-07-17 16:35:00,82.1,73.8,30.00,South,176,0.0,11.0,76,0.00,,---,0.11,VWS V14.01,2013-07-17 20:35:00,
2013-07-17 16:40:00,82.4,74.1,30.00,South,176,9.0,10.0,76,0.00,,---,0.11,VWS V14.01,2013-07-17 20:40:00,
2013-07-17 16:45:00,82.7,74.4,29.99,South,176,0.0,9.0,76,0.00,,---,0.11,VWS V14.01,2013-07-17 20:45:00,
2013-07-17 16:50:00,82.7,74.4,29.99,South,176,1.0,6.0,76,0.00,,---,0.11,VWS V14.01,2013-07-17 20:50:00,
2013-07-17 16:55:00,82.8,74.5,29.99,South,177,0.0,5.0,76,0.00,,---,0.11,VWS V14.01,2013-07-17 20:55:00,
2013-07-17 17:00:00,82.9,74.6,29.99,South,177,0.0,7.0,76,0.00,,---,0.11,VWS V14.01,2013-07-17 21:00:00,
2013-07-17 17:05:00,82.8,74.9,29.99,South,176,0.0,7.0,77,0.00,,---,0.11,VWS V14.01,2013-07-17 21:05:00,
2013-07-17 17:10:00,82.7,74.8,29.99,South,176,0.0,2.0,77,0.00,,---,0.11,VWS V14.01,2013-07-17 21:10:00,
2013-07-17 17:15:00,82.7,74.8,29.98,South,176,0.0,6.0,77,0.00,,---,0.11,VWS V14.01,2013-07-17 21:15:00,
2013-07-17 17:20:00,82.9,74.9,29.98,South,177,0.0,5.0,77,0.00,,---,0.11,VWS V14.01,2013-07-17 21:20:00,
2013-07-17 17:25:00,83.1,75.5,29.98,South,176,1.0,8.0,78,0.00,,---,0.11,VWS V14.01,2013-07-17 21:25:00,
2013-07-17 17:30:00,83.0,75.4,29.98,South,176,0.0,5.0,78,0.00,,---,0.11,VWS V14.01,2013-07-17 21:30:00,
2013-07-17 17:35:00,82.8,75.2,29.97,South,176,0.0,5.0,78,0.00,,---,0.11,VWS V14.01,2013-07-17 21:35:00,
2013-07-17 17:40:00,82.0,74.8,29.97,South,177,10.0,17.0,79,0.00,,---,0.11,VWS V14.01,2013-07-17 21:40:00,
2013-07-17 17:45:00,80.3,73.2,29.97,South,176,8.0,13.0,79,0.00,,---,0.11,VWS V14.01,2013-07-17 21:45:00,
2013-07-17 17:50:00,78.8,72.5,29.97,South,176,1.0,16.0,81,0.03,,---,0.14,VWS V14.01,2013-07-17 21:50:00,
2013-07-17 17:55:00,77.3,71.7,29.97,South,176,11.0,11.0,83,0.05,,---,0.16,VWS V14.01,2013-07-17 21:55:00,
2013-07-17 18:01:00,76.2,71.7,29.98,South,177,24.0,24.0,86,0.06,,---,0.17,VWS V14.01,2013-07-17 22:01:00,
2013-07-17 18:06:00,75.1,71.3,29.98,South,176,13.0,24.0,88,0.12,,---,0.23,VWS V14.01,2013-07-17 22:06:00,
2013-07-17 18:11:00,74.9,71.8,29.98,South,177,11.0,17.0,90,0.16,,---,0.27,VWS V14.01,2013-07-17 22:11:00,
2013-07-17 18:16:00,74.7,71.6,29.99,South,177,11.0,18.0,90,0.17,,---,0.28,VWS V14.01,2013-07-17 22:16:00,
2013-07-17 18:21:00,74.3,71.5,29.99,South,177,6.0,16.0,91,0.19,,---,0.30,VWS V14.01,2013-07-17 22:21:00,
2013-07-17 18:26:00,74.2,71.4,29.99,South,177,4.0,7.0,91,0.20,,---,0.31,VWS V14.01,2013-07-17 22:26:00,
2013-07-17 18:31:00,74.2,71.4,29.99,South,177,0.0,7.0,91,0.20,,---,0.31,VWS V14.01,2013-07-17 22:31:00,
2013-07-17 18:36:00,74.4,71.9,29.99,South,177,10.0,10.0,92,0.21,,---,0.32,VWS V14.01,2013-07-17 22:36:00,
2013-07-17 18:41:00,74.5,72.0,29.99,South,177,9.0,12.0,92,0.21,,---,0.32,VWS V14.01,2013-07-17 22:41:00,
2013-07-17 18:46:00,74.6,72.1,29.99,South,177,14.0,15.0,92,0.21,,---,0.32,VWS V14.01,2013-07-17 22:46:00,
2013-07-17 18:51:00,74.7,72.2,29.99,South,177,8.0,12.0,92,0.21,,---,0.32,VWS V14.01,2013-07-17 22:51:00,
2013-07-17 18:56:00,74.7,72.2,29.99,South,177,6.0,10.0,92,0.17,,---,0.32,VWS V14.01,2013-07-17 22:56:00,
2013-07-17 19:01:00,74.8,72.3,29.99,South,177,0.0,8.0,92,0.15,,---,0.32,VWS V14.01,2013-07-17 23:01:00,
2013-07-17 19:06:00,74.9,72.4,29.99,South,177,0.0,1.0,92,0.15,,---,0.32,VWS V14.01,2013-07-17 23:06:00,
2013-07-17 19:11:00,75.0,72.5,29.99,South,177,0.0,0.0,92,0.09,,---,0.32,VWS V14.01,2013-07-17 23:11:00,
2013-07-17 19:16:00,75.1,72.6,29.99,South,177,0.0,1.0,92,0.05,,---,0.32,VWS V14.01,2013-07-17 23:16:00,
2013-07-17 19:21:00,75.2,72.7,29.99,South,177,0.0,1.0,92,0.04,,---,0.32,VWS V14.01,2013-07-17 23:21:00,
2013-07-17 19:26:00,75.3,72.8,29.99,South,177,0.0,1.0,92,0.02,,---,0.32,VWS V14.01,2013-07-17 23:26:00,
2013-07-17 19:31:00,75.1,72.3,30.00,South,176,0.0,1.0,91,0.01,,---,0.32,VWS V14.01,2013-07-17 23:31:00,
2013-07-17 19:36:00,74.2,70.8,30.00,South,176,0.0,0.0,89,0.01,,---,0.32,VWS V14.01,2013-07-17 23:36:00,
2013-07-17 19:41:00,74.4,70.9,30.00,South,177,0.0,0.0,89,0.00,,---,0.32,VWS V14.01,2013-07-17 23:41:00,
2013-07-17 19:46:00,74.8,71.0,30.00,South,177,0.0,8.0,88,0.00,,---,0.32,VWS V14.01,2013-07-17 23:46:00,
2013-07-17 19:51:00,74.9,70.8,30.00,South,177,0.0,1.0,87,0.00,,---,0.32,VWS V14.01,2013-07-17 23:51:00,
2013-07-17 19:56:00,75.1,71.0,30.00,South,177,0.0,0.0,87,0.00,,---,0.32,VWS V14.01,2013-07-17 23:56:00,
2013-07-17 20:01:00,75.3,70.8,30.00,South,177,0.0,0.0,86,0.00,,---,0.32,VWS V14.01,2013-07-18 00:01:00,
2013-07-17 20:06:00,75.4,70.9,30.00,South,176,0.0,0.0,86,0.00,,---,0.32,VWS V14.01,2013-07-18 00:06:00,
2013-07-17 20:11:00,75.5,71.4,30.00,South,177,0.0,0.0,87,0.00,,---,0.32,VWS V14.01,2013-07-18 00:11:00,
2013-07-17 20:16:00,75.7,71.6,30.00,South,177,0.0,0.0,87,0.00,,---,0.32,VWS V14.01,2013-07-18 00:16:00,
2013-07-17 20:21:00,75.8,72.0,30.00,South,177,0.0,0.0,88,0.00,,---,0.32,VWS V14.01,2013-07-18 00:21:00,
2013-07-17 20:26:00,75.9,72.1,30.00,South,177,0.0,0.0,88,0.00,,---,0.32,VWS V14.01,2013-07-18 00:26:00,
2013-07-17 20:31:00,75.9,72.1,30.00,South,177,0.0,0.0,88,0.00,,---,0.32,VWS V14.01,2013-07-18 00:31:00,
2013-07-17 20:36:00,76.0,72.5,30.00,South,177,0.0,0.0,89,0.00,,---,0.32,VWS V14.01,2013-07-18 00:36:00,
2013-07-17 20:41:00,76.0,72.5,30.00,South,177,0.0,0.0,89,0.00,,---,0.32,VWS V14.01,2013-07-18 00:41:00,
2013-07-17 20:46:00,76.0,72.5,30.00,South,177,0.0,0.0,89,0.00,,---,0.32,VWS V14.01,2013-07-18 00:46:00,
2013-07-17 20:51:00,76.0,72.5,30.00,South,177,0.0,0.0,89,0.00,,---,0.32,VWS V14.01,2013-07-18 00:51:00,
2013-07-17 20:56:00,76.1,72.6,30.00,South,177,0.0,0.0,89,0.00,,---,0.32,VWS V14.01,2013-07-18 00:56:00,
2013-07-17 21:01:00,76.4,73.2,30.00,South,177,0.0,6.0,90,0.00,,---,0.32,VWS V14.01,2013-07-18 01:01:00,
2013-07-17 21:06:00,76.9,73.4,30.00,South,177,10.0,11.0,89,0.00,,---,0.32,VWS V14.01,2013-07-18 01:06:00,
2013-07-17 21:11:00,77.3,73.5,30.00,South,177,9.0,11.0,88,0.00,,---,0.32,VWS V14.01,2013-07-18 01:11:00,
2013-07-17 21:16:00,77.7,73.9,30.00,South,177,8.0,11.0,88,0.00,,---,0.32,VWS V14.01,2013-07-18 01:16:00,
2013-07-17 21:21:00,78.0,74.2,30.00,South,177,0.0,0.0,88,0.00,,---,0.32,VWS V14.01,2013-07-18 01:21:00,
2013-07-17 21:26:00,78.0,73.8,30.00,South,177,10.0,12.0,87,0.00,,---,0.32,VWS V14.01,2013-07-18 01:26:00,
2013-07-17 21:31:00,78.0,73.8,30.00,South,177,9.0,9.0,87,0.00,,---,0.32,VWS V14.01,2013-07-18 01:31:00,
2013-07-17 21:36:00,78.1,74.3,30.00,South,177,11.0,14.0,88,0.00,,---,0.32,VWS V14.01,2013-07-18 01:36:00,
2013-07-17 21:41:00,77.5,73.0,30.00,South,176,8.0,15.0,86,0.01,,---,0.33,VWS V14.01,2013-07-18 01:41:00,
2013-07-17 21:46:00,77.3,73.1,30.01,South,176,9.0,9.0,87,0.02,,---,0.34,VWS V14.01,2013-07-18 01:46:00,
2013-07-17 21:51:00,77.5,73.7,30.01,South,177,10.0,17.0,88,0.02,,---,0.34,VWS V14.01,2013-07-18 01:51:00,
2013-07-17 21:56:00,77.7,73.5,30.01,South,177,4.0,16.0,87,0.02,,---,0.34,VWS V14.01,2013-07-18 01:56:00,
2013-07-17 22:01:00,77.9,73.7,30.01,South,177,0.0,15.0,87,0.02,,---,0.34,VWS V14.01,2013-07-18 02:01:00,
2013-07-17 22:06:00,78.0,73.5,30.01,South,177,5.0,10.0,86,0.02,,---,0.34,VWS V14.01,2013-07-18 02:06:00,
2013-07-17 22:11:00,78.2,73.7,30.01,South,177,0.0,8.0,86,0.02,,---,0.34,VWS V14.01,2013-07-18 02:11:00,
2013-07-17 22:16:00,78.2,74.0,30.01,South,177,0.0,4.0,87,0.02,,---,0.34,VWS V14.01,2013-07-18 02:16:00,
2013-07-17 22:21:00,78.2,74.0,30.01,South,177,1.0,6.0,87,0.02,,---,0.34,VWS V14.01,2013-07-18 02:21:00,
2013-07-17 22:26:00,78.3,74.1,30.01,South,177,0.0,7.0,87,0.02,,---,0.34,VWS V14.01,2013-07-18 02:26:00,
2013-07-17 22:31:00,78.3,74.1,30.02,South,177,0.0,0.0,87,0.02,,---,0.34,VWS V14.01,2013-07-18 02:31:00,
2013-07-17 22:36:00,78.3,74.1,30.02,South,176,0.0,5.0,87,0.02,,---,0.34,VWS V14.01,2013-07-18 02:36:00,
2013-07-17 22:41:00,78.4,74.2,30.02,South,177,1.0,1.0,87,0.01,,---,0.34,VWS V14.01,2013-07-18 02:41:00,
2013-07-17 22:46:00,78.5,74.7,30.01,South,177,0.0,9.0,88,0.01,,---,0.34,VWS V14.01,2013-07-18 02:46:00,
2013-07-17 22:51:00,78.4,74.2,30.01,South,177,4.0,5.0,87,0.00,,---,0.34,VWS V14.01,2013-07-18 02:51:00,
2013-07-17 22:56:00,78.3,74.1,30.01,South,177,0.0,0.0,87,0.00,,---,0.34,VWS V14.01,2013-07-18 02:56:00,
2013-07-17 23:01:00,78.1,73.9,30.02,South,177,0.0,7.0,87,0.00,,---,0.34,VWS V14.01,2013-07-18 03:01:00,
2013-07-17 23:06:00,78.0,73.8,30.02,South,177,1.0,1.0,87,0.00,,---,0.34,VWS V14.01,2013-07-18 03:06:00,
2013-07-17 23:11:00,77.9,73.7,30.02,South,177,0.0,0.0,87,0.00,,---,0.34,VWS V14.01,2013-07-18 03:11:00,
2013-07-17 23:16:00,77.8,73.3,30.01,South,177,11.0,13.0,86,0.00,,---,0.34,VWS V14.01,2013-07-18 03:16:00,
2013-07-17 23:21:00,78.0,73.1,30.01,South,177,11.0,11.0,85,0.00,,---,0.34,VWS V14.01,2013-07-18 03:21:00,
2013-07-17 23:26:00,78.3,73.1,30.01,South,177,9.0,10.0,84,0.00,,---,0.34,VWS V14.01,2013-07-18 03:26:00,
2013-07-17 23:32:00,78.4,72.8,30.01,South,177,0.0,8.0,83,0.00,,---,0.34,VWS V14.01,2013-07-18 03:32:00,
2013-07-17 23:36:00,78.5,72.9,30.01,South,177,6.0,10.0,83,0.00,,---,0.34,VWS V14.01,2013-07-18 03:36:00,
2013-07-17 23:41:00,78.6,73.4,30.01,South,177,0.0,0.0,84,0.00,,---,0.34,VWS V14.01,2013-07-18 03:41:00,
2013-07-17 23:46:00,78.7,73.5,30.00,South,177,9.0,10.0,84,0.00,,---,0.34,VWS V14.01,2013-07-18 03:46:00,
2013-07-17 23:51:00,78.6,73.0,30.00,South,177,10.0,10.0,83,0.00,,---,0.34,VWS V14.01,2013-07-18 03:51:00,
2013-07-17 23:56:00,78.7,73.1,30.00,South,177,1.0,1.0,83,0.00,,---,0.34,VWS V14.01,2013-07-18 03:56:00,